This is the latest recevied weather packets stored in our database for station/object W0WC. If no packets are shown the sender has not sent any weather packets the latest 10 day(s).
| Time | Temp. | Humidity | Pressure | Rain* | Wind** | Luminosity | Snow |
|---|---|---|---|---|---|---|---|
| 1777703390 | 10.56° C | 68% | 1019.1 hPa | 0 mm | - | 0 W/m² | - |
| 1777703087 | 10.56° C | 69% | 1018.9 hPa | 0 mm | - | 0 W/m² | - |
| 1777702786 | 10.56° C | 68% | 1019.3 hPa | 0 mm | - | 0 W/m² | - |
| 1777702483 | 10.56° C | 65% | 1019.1 hPa | 0 mm | - | 0 W/m² | - |
| 1777702179 | 10° C | 67% | 1019.2 hPa | 0 mm | - | 0 W/m² | - |
| 1777701874 | 10° C | 67% | 1019.3 hPa | 0 mm | - | 0 W/m² | - |
| 1777701571 | 9.44° C | 68% | 1019.2 hPa | 0 mm | - | 0 W/m² | - |
| 1777701269 | 9.44° C | 72% | 1019 hPa | 0 mm | - | 0 W/m² | - |
| 1777700969 | 9.44° C | 72% | 1019.3 hPa | 0 mm | - | 0 W/m² | - |
| 1777700666 | 9.44° C | 72% | 1019.3 hPa | 0 mm | - | 0 W/m² | - |
| 1777700363 | 9.44° C | 70% | 1019.4 hPa | 0 mm | - | 0 W/m² | - |
| 1777700061 | 9.44° C | 74% | 1019.3 hPa | 0 mm | - | 0 W/m² | - |
| 1777699758 | 9.44° C | 76% | 1019.2 hPa | 0 mm | - | 0 W/m² | - |
| 1777699456 | 10° C | 77% | 1019.3 hPa | 0 mm | - | 0 W/m² | - |
| 1777699154 | 10° C | 73% | 1019.2 hPa | 0 mm | - | 0 W/m² | - |
| 1777698852 | 10° C | 75% | 1019.1 hPa | 0 mm | - | 0 W/m² | - |
| 1777698548 | 10° C | 75% | 1019.2 hPa | 0 mm | - | 0 W/m² | - |
| 1777698245 | 10° C | 77% | 1019.3 hPa | 0 mm | - | 0 W/m² | - |
| 1777697942 | 10.56° C | 76% | 1019.1 hPa | 0 mm | - | 0 W/m² | - |
| 1777697639 | 11.11° C | 69% | 1019.1 hPa | 0 mm | - | 0 W/m² | - |
| 1777697336 | 11.11° C | 65% | 1018.9 hPa | 0 mm | - | 0 W/m² | - |
| 1777697032 | 11.67° C | 66% | 1019.1 hPa | 0 mm | - | 0 W/m² | - |
| 1777696729 | 11.67° C | 63% | 1019.1 hPa | 0 mm | - | 0 W/m² | - |
| 1777696426 | 11.67° C | 64% | 1019.1 hPa | 0 mm | - | 0 W/m² | - |
| 1777696126 | 11.67° C | 65% | 1019.2 hPa | 0 mm | - | 0 W/m² | - |
* Rain latest hour (hover to see other rain measurements)
** Current wind speed in m/s (hover to see current wind gust speed)